TimePDT,TemperatureF,Dew PointF,Humidity,Sea Level PressureIn,VisibilityMPH,Wind Direction,Wind SpeedMPH,Gust SpeedMPH,PrecipitationIn,Events,Conditions,WindDirDegrees,DateUTC
12:56 AM,77.0,32.0,19,29.87,10.0,WSW,11.5,-,N/A,,Clear,250,2013-06-12 07:56:00
1:56 AM,77.0,32.0,19,29.86,10.0,WSW,12.7,-,N/A,,Clear,250,2013-06-12 08:56:00
2:56 AM,73.9,35.1,24,29.86,10.0,West,12.7,-,N/A,,Clear,260,2013-06-12 09:56:00
3:56 AM,70.0,37.0,30,29.86,10.0,WNW,3.5,-,N/A,,Clear,290,2013-06-12 10:56:00
4:56 AM,68.0,39.0,35,29.87,10.0,West,6.9,-,N/A,,Clear,260,2013-06-12 11:56:00
5:56 AM,73.0,41.0,31,29.88,10.0,WSW,9.2,-,N/A,,Clear,240,2013-06-12 12:56:00
6:56 AM,75.0,42.1,31,29.89,10.0,WNW,8.1,-,N/A,,Clear,300,2013-06-12 13:56:00
7:56 AM,80.1,41.0,25,29.90,10.0,West,12.7,-,N/A,,Clear,260,2013-06-12 14:56:00
8:56 AM,84.9,35.1,17,29.89,10.0,West,12.7,-,N/A,,Clear,280,2013-06-12 15:56:00
9:56 AM,89.1,30.0,12,29.89,10.0,SW,11.5,18.4,N/A,,Clear,230,2013-06-12 16:56:00
10:56 AM,91.9,28.0,10,29.88,10.0,SW,16.1,24.2,N/A,,Clear,220,2013-06-12 17:56:00
11:56 AM,89.1,32.0,13,29.89,10.0,SSW,21.9,33.4,N/A,,Clear,210,2013-06-12 18:56:00
12:56 PM,91.0,34.0,13,29.87,10.0,SW,24.2,32.2,N/A,,Clear,220,2013-06-12 19:56:00
1:56 PM,91.0,37.0,15,29.87,10.0,SW,23.0,33.4,N/A,,Clear,220,2013-06-12 20:56:00
2:56 PM,91.0,32.0,12,29.87,10.0,SW,25.3,34.5,N/A,,Clear,220,2013-06-12 21:56:00
3:56 PM,90.0,33.1,13,29.87,10.0,WSW,27.6,34.5,N/A,,Clear,240,2013-06-12 22:56:00
4:56 PM,87.1,36.0,16,29.87,10.0,SW,23.0,31.1,N/A,,Clear,230,2013-06-12 23:56:00
5:56 PM,86.0,44.1,23,29.86,10.0,SW,21.9,33.4,N/A,,Clear,230,2013-06-13 00:56:00
6:56 PM,82.9,46.9,28,29.87,10.0,SW,18.4,-,N/A,,Clear,230,2013-06-13 01:56:00
7:56 PM,78.1,50.0,37,29.88,10.0,SW,16.1,24.2,N/A,,Clear,230,2013-06-13 02:56:00
8:56 PM,73.9,50.0,43,29.89,10.0,SW,16.1,23.0,N/A,,Clear,230,2013-06-13 03:56:00
9:56 PM,73.9,51.1,45,29.90,10.0,WSW,19.6,-,N/A,,Clear,240,2013-06-13 04:56:00
10:56 PM,73.0,46.9,39,29.91,10.0,WSW,11.5,-,N/A,,Clear,250,2013-06-13 05:56:00
11:56 PM,72.0,46.9,41,29.91,10.0,WSW,15.0,-,N/A,,Clear,240,2013-06-13 06:56:00